Location: Temecula
(33.4977°N, 117.1073°W)
Time: 15:30:33
(UTC-07:00)

ISS - Visible Passes

Search period start: 23 August 2019 00:00
Search period end: 02 September 2019 00:00
Orbit: 410 x 421 km, 51.6° (Epoch: 24 August)

Date Brightness Start Highest point End Pass type
(mag) Time Alt. Az. Time Alt. Az. Time Alt. Az.
25 Aug -2.1 05:06:42 13° S 05:09:04 28° SE 05:12:00 10° ENE visible
26 Aug -1.2 04:20:20 15° SE 04:20:26 15° SE 04:22:23 10° E visible
27 Aug -3.9 05:06:44 34° SW 05:08:02 77° NW 05:11:21 10° NE visible
28 Aug -2.4 04:20:09 37° E 04:20:09 37° E 04:22:29 10° ENE visible
29 Aug -2.3 05:06:22 22° WNW 05:07:10 25° NW 05:09:59 10° NNE visible
30 Aug -1.9 04:19:36 27° NNE 04:19:36 27° NNE 04:21:26 10° NE visible
31 Aug -1.2 05:05:40 11° NW 05:06:30 11° NNW 05:07:37 10° N visible
01 Sep -1.0 04:18:47 14° N 04:18:47 14° N 04:19:42 10° N visible
